Retour au catalogue

STARLINK-11282

ActifCommunicationsVLEO
NORAD 60992·PAYLOAD·🇺🇸 United States

Lancé Sep 5, 2024 depuis Cape Canaveral Space Force Station

Loading…

Prochains Passages (prochaines 24 heures)

TLE

FraisSource: CelesTrak SupGP

Époque: Sep 15, 2026, 02:40 UTC

1 60992C 24158C   26258.11159722 -.00031067  00000+0 -25584-3 0  2580
2 60992  53.1570  67.4449 0001094  76.5284  11.2165 15.69731410    13

Suivez STARLINK-11282 en temps réel avec AllMySat

Download on the App Store